Regional Weather Roundup
Issued by NWS Raleigh/Durham, NC

Home | Current Version | Previous Version | Text Only | Print | Product List | Glossary On
Versions: 1 2 3 4 5 6 7 8 9 10 11 12 13 14 15 16 17 18 19 20 21 22 23 24 25 26 27
000
ASUS42 KRAH 210910
RWRRAH
NORTH CAROLINA WEATHER ROUNDUP
NATIONAL WEATHER SERVICE RALEIGH NC
500 AM EDT MON APR 21 2014

NOTE: "FAIR" INDICATES FEW OR NO CLOUDS BELOW 12,000 FEET WITH NO
SIGNIFICANT WEATHER AND/OR OBSTRUCTIONS TO VISIBILITY.

NCZ001-053-055-056-065-067-211000-
WESTERN NORTH CAROLINA

CITY           SKY/WX    TMP DP  RH WIND       PRES   REMARKS
ASHEVILLE      CLEAR     39  36  89 CALM      30.19F
JEFFERSON      PTCLDY    42  28  56 SW3       30.19S
MORGANTON      CLEAR     36  35  98 N3        30.23S FOG
HICKORY        CLEAR     44  37  76 CALM      30.18F
RUTHERFORDTON  CLEAR     44  36  75 N3        30.18F
MOUNT AIRY     CLEAR     47  35  63 CALM      30.18S
BOONE          CLEAR     32  32  99 CALM      30.20S
$$

NCZ021-022-025-041-071-084-088-211000-
CENTRAL NORTH CAROLINA

CITY           SKY/WX    TMP DP  RH WIND       PRES   REMARKS
CHARLOTTE      CLEAR     45  38  76 N6        30.17S
GREENSBORO     CLEAR     44  33  65 NE5       30.18S
WINSTON-SALEM  CLEAR     44  34  67 N5        30.19F
RALEIGH-DURHAM CLEAR     43  32  65 VRB6      30.16S
FORT BRAGG     CLEAR     48  37  65 N7        30.12S
FAYETTEVILLE   CLEAR     50  37  61 N12       30.11S
CHAPEL HILL    CLEAR     43  33  68 NW6       30.17F
BURLINGTON     CLEAR     43  32  65 N6        30.17S
LAURINBURG     CLEAR     48  37  65 N10       30.13S
$$

NCZ011-015-027-028-043-044-047-080-103-211000-
NORTHEASTERN NORTH CAROLINA

CITY           SKY/WX    TMP DP  RH WIND       PRES   REMARKS
ROCKY MT-WILSO CLEAR     45  36  70 N12       30.13S
GREENVILLE     CLOUDY    46  39  76 N8        30.11F
WASHINGTON     CLOUDY    50  46  85 N10       30.08S
ELIZABETH CITY CLOUDY    49  45  86 N15       30.09F
MANTEO         CLOUDY    48  47  95 NE21G29   30.05S
CAPE HATTERAS  CLOUDY    50  50 100 NE17G31   29.98S FOG
$$

NCZ078-087-090-091-093-098-101-211000-
SOUTHEASTERN NORTH CAROLINA

CITY           SKY/WX    TMP DP  RH WIND       PRES   REMARKS
LUMBERTON      CLEAR     51  41  68 N12       30.09F
GOLDSBORO      CLEAR     47  40  76 N10       30.09S
KINSTON        MOCLDY    47  40  75 N10       30.09F
KENANSVILLE    PTCLDY    47  39  73 N10       30.10R
NEW BERN       CLOUDY    52  46  80 N10       30.06S
CHERRY POINT   CLOUDY    52  46  80 N23       30.04S
BEAUFORT       CLOUDY    51  49  92 N17G28    30.01R
JACKSONVILLE   CLOUDY    51  47  86 N14       30.04F
WILMINGTON     CLOUDY    52  43  71 N13       30.04F
$$




USA.gov is the U.S. government's official web portal to all federal, state and local government web resources and services.